Regional Weather Roundup
Issued by NWS

Home | Current Version | Previous Version | Graphics & Text | Print | Product List | Glossary On
Versions: 1 2 3 4 5 6 7 8 9 10 11 12 13 14 15 16 17 18 19 20 21 22 23 24 25 26 27 28 29 30 31 32 33 34 35 36 37 38 39 40 41 42 43 44 45 46 47 48 49 50
000
ASUS43 KLSX 180607
RWRMO

WEATHER SUMMARY FOR MISSOURI
NATIONAL WEATHER SERVICE SPRINGFIELD MO
100 AM CDT FRI APR 18 2014

NOTE: "FAIR" INDICATES FEW OR NO CLOUDS BELOW 12,000 FEET WITH NO
       SIGNIFICANT WEATHER AND/OR OBSTRUCTIONS TO VISIBILITY.
       CURRENT SKY AND/OR WEATHER CONDITIONS ARE NOT AVAILABLE FOR
       CHILLICOTHE AND FARMINGTON.

MOZ001>031-035>038-043-044-053-054-180700-
...NORTHERN AND WESTERN MISSOURI...

CITY           SKY/WX    TMP DP  RH WIND       PRES   REMARKS
KANSAS CTY INT FAIR      41  32  70 SW5       30.28R
6HR MIN TEMP:  38; 6HR MAX TEMP:  49;

KANSAS C DTWN  FAIR      42  34  73 CALM      30.28S
6HR MIN TEMP:  41; 6HR MAX TEMP:  51;

LEE`S SUMMIT   FAIR      41  33  73 CALM      30.28S
6HR MIN TEMP:  39; 6HR MAX TEMP:  47;

ST JOSEPH      FAIR      36  31  82 CALM      30.29S
6HR MIN TEMP:  36; 6HR MAX TEMP:  53;

CHILLICOTHE      N/A     35  30  82 CALM      30.29S
6HR MIN TEMP:  34; 6HR MAX TEMP:  51;

KIRKSVILLE     FAIR      37  32  82 N3        30.28S
6HR MIN TEMP:  34; 6HR MAX TEMP:  50;


$$
MOZ066>068-077>081-088>096-101>105-180700-
...SOUTHWEST MISSOURI...

CITY           SKY/WX    TMP DP  RH WIND       PRES   REMARKS
SPRINGFIELD    CLOUDY    50  40  68 NE5       30.25S
6HR MIN TEMP:  49; 6HR MAX TEMP:  58;

JOPLIN         CLOUDY    45  41  86 N6        30.27S
6HR MIN TEMP:  45; 6HR MAX TEMP:  54; 6HR PCP: TRACE;


$$
MOZ032>034-039>042-045>050-055>058-069>072-180700-
...CENTRAL MISSOURI...

CITY           SKY/WX    TMP DP  RH WIND       PRES   REMARKS
COLUMBIA       FAIR      45  39  79 N5        30.27F
6HR MIN TEMP:  45; 6HR MAX TEMP:  50;

JEFFERSON CITY CLOUDY    48  40  73 CALM      30.27F
6HR MIN TEMP:  48; 6HR MAX TEMP:  54;

ROLLA          MOCLDY    45  40  82 N3        30.25F
6HR MIN TEMP:  44; 6HR MAX TEMP:  56;

SEDALIA        FAIR      41  39  93 NW5       30.29F FOG
6HR MIN TEMP:  40; 6HR MAX TEMP:  47; 6HR PCP: TRACE;

WHITEMAN AFB   CLEAR     38  35  87 CALM      30.28S
OSAGE BEACH    CLOUDY    46  36  66 S3        30.29S

$$
MOZ051-052-059>065-180700-
...EAST CENTRAL MISSOURI...

CITY           SKY/WX    TMP DP  RH WIND       PRES   REMARKS
ST LOUIS INTL  MOCLDY    52  39  61 N5        30.28S
6HR MIN TEMP:  51; 6HR MAX TEMP:  62;

SPIRIT OF STL  CLOUDY    49  40  71 CALM      30.27F
6HR MIN TEMP:  48; 6HR MAX TEMP:  61;

ST CHARLES     FAIR      49  38  65 N5        30.27F
6HR MIN TEMP:  49; 6HR MAX TEMP:  60;


$$
MOZ072>076-082>087-097>100-106>115-180700-
...SOUTH CENTRAL AND SOUTHEAST MISSOURI...

CITY           SKY/WX    TMP DP  RH WIND       PRES   REMARKS
CAPE GIRARDEAU FAIR      47  43  86 E3        30.24R
6HR MIN TEMP:  47; 6HR MAX TEMP:  62;

FARMINGTON     FAIR      52  39  62 CALM      30.28R
6HR MIN TEMP:  46; 6HR MAX TEMP:  64;

POPLAR BLUFF   FAIR      50  44  80 N3        30.22S
6HR MIN TEMP:  50; 6HR MAX TEMP:  64;

WEST PLAINS    FAIR      52  37  56 N5        30.24R
6HR MIN TEMP:  52; 6HR MAX TEMP:  63;


$$



USA.gov is the U.S. government's official web portal to all federal, state and local government web resources and services.